<?xml version="1.0" encoding="UTF-8" standalone="no" ?>
<gpx xmlns="http://www.topografix.com/GPX/1/1" xmlns:xsi="http://www.w3.org/2001/XMLSchema-instance" xsi:schemaLocation="http://www.topografix.com/GPX/1/1 http://www.topografix.com/GPX/1/1/gpx.xsd" version="1.1" creator="VisuGPX - https://www.visugpx.com">
  <metadata>
    <name>Boissy L_Aillerie 15</name>
  </metadata>
  <trk>
    <name><![CDATA[Boissy L'Aillerie 13]]></name>
    <extensions>
      <line xmlns="http://www.topografix.com/GPX/gpx_style/0/2">
        <color>0000FF</color>
        <width>4</width>
      </line>
    </extensions>
    <trkseg>
      <trkpt lat="49.07586" lon="2.02578">
        <ele>43</ele>
        <time>2021-12-31T15:30:19+01:00</time>
      </trkpt>
      <trkpt lat="49.07579" lon="2.02638">
        <ele>41.2</ele>
        <time>2021-12-31T15:30:24+01:00</time>
      </trkpt>
      <trkpt lat="49.0753" lon="2.02874">
        <ele>40.5</ele>
        <time>2021-12-31T15:30:29+01:00</time>
      </trkpt>
      <trkpt lat="49.07536" lon="2.02923">
        <ele>39.8</ele>
        <time>2021-12-31T15:30:34+01:00</time>
      </trkpt>
      <trkpt lat="49.07498" lon="2.02955">
        <ele>39.7</ele>
        <time>2021-12-31T15:30:39+01:00</time>
      </trkpt>
      <trkpt lat="49.07445" lon="2.03209">
        <ele>40</ele>
        <time>2021-12-31T15:30:44+01:00</time>
      </trkpt>
      <trkpt lat="49.0736" lon="2.03316">
        <ele>39</ele>
        <time>2021-12-31T15:30:49+01:00</time>
      </trkpt>
      <trkpt lat="49.07327" lon="2.03257">
        <ele>40.2</ele>
        <time>2021-12-31T15:30:54+01:00</time>
      </trkpt>
      <trkpt lat="49.07224" lon="2.03342">
        <ele>43.5</ele>
        <time>2021-12-31T15:30:59+01:00</time>
      </trkpt>
      <trkpt lat="49.07276" lon="2.03447">
        <ele>42.9</ele>
        <time>2021-12-31T15:31:04+01:00</time>
      </trkpt>
      <trkpt lat="49.07352" lon="2.03552">
        <ele>42</ele>
        <time>2021-12-31T15:31:09+01:00</time>
      </trkpt>
      <trkpt lat="49.0741" lon="2.03616">
        <ele>43.9</ele>
        <time>2021-12-31T15:31:14+01:00</time>
      </trkpt>
      <trkpt lat="49.07542" lon="2.03624">
        <ele>49.3</ele>
        <time>2021-12-31T15:31:19+01:00</time>
      </trkpt>
      <trkpt lat="49.07573" lon="2.03648">
        <ele>54.1</ele>
        <time>2021-12-31T15:31:24+01:00</time>
      </trkpt>
      <trkpt lat="49.07585" lon="2.03674">
        <ele>58.2</ele>
        <time>2021-12-31T15:31:29+01:00</time>
      </trkpt>
      <trkpt lat="49.07603" lon="2.03663">
        <ele>58</ele>
        <time>2021-12-31T15:31:34+01:00</time>
      </trkpt>
      <trkpt lat="49.07596" lon="2.03697">
        <ele>61.4</ele>
        <time>2021-12-31T15:31:39+01:00</time>
      </trkpt>
      <trkpt lat="49.07559" lon="2.03755">
        <ele>66.5</ele>
        <time>2021-12-31T15:31:44+01:00</time>
      </trkpt>
      <trkpt lat="49.07532" lon="2.03876">
        <ele>69.7</ele>
        <time>2021-12-31T15:31:49+01:00</time>
      </trkpt>
      <trkpt lat="49.07532" lon="2.03904">
        <ele>71.2</ele>
        <time>2021-12-31T15:31:54+01:00</time>
      </trkpt>
      <trkpt lat="49.07553" lon="2.03937">
        <ele>72.7</ele>
        <time>2021-12-31T15:31:59+01:00</time>
      </trkpt>
      <trkpt lat="49.07565" lon="2.03978">
        <ele>74.3</ele>
        <time>2021-12-31T15:32:04+01:00</time>
      </trkpt>
      <trkpt lat="49.0758" lon="2.03997">
        <ele>74.9</ele>
        <time>2021-12-31T15:32:09+01:00</time>
      </trkpt>
      <trkpt lat="49.07598" lon="2.03976">
        <ele>75.6</ele>
        <time>2021-12-31T15:32:14+01:00</time>
      </trkpt>
      <trkpt lat="49.07613" lon="2.0394">
        <ele>75.8</ele>
        <time>2021-12-31T15:32:19+01:00</time>
      </trkpt>
      <trkpt lat="49.07696" lon="2.03861">
        <ele>73</ele>
        <time>2021-12-31T15:32:24+01:00</time>
      </trkpt>
      <trkpt lat="49.07729" lon="2.03816">
        <ele>72.3</ele>
        <time>2021-12-31T15:32:29+01:00</time>
      </trkpt>
      <trkpt lat="49.07773" lon="2.03729">
        <ele>74.5</ele>
        <time>2021-12-31T15:32:34+01:00</time>
      </trkpt>
      <trkpt lat="49.07903" lon="2.03546">
        <ele>74.7</ele>
        <time>2021-12-31T15:32:39+01:00</time>
      </trkpt>
      <trkpt lat="49.07954" lon="2.03451">
        <ele>74.5</ele>
        <time>2021-12-31T15:32:44+01:00</time>
      </trkpt>
      <trkpt lat="49.08017" lon="2.03314">
        <ele>73.9</ele>
        <time>2021-12-31T15:32:49+01:00</time>
      </trkpt>
      <trkpt lat="49.0805" lon="2.03211">
        <ele>74.8</ele>
        <time>2021-12-31T15:32:54+01:00</time>
      </trkpt>
      <trkpt lat="49.08053" lon="2.03194">
        <ele>74.9</ele>
        <time>2021-12-31T15:32:59+01:00</time>
      </trkpt>
      <trkpt lat="49.08075" lon="2.03123">
        <ele>75.7</ele>
        <time>2021-12-31T15:33:04+01:00</time>
      </trkpt>
      <trkpt lat="49.08116" lon="2.02949">
        <ele>78.5</ele>
        <time>2021-12-31T15:33:09+01:00</time>
      </trkpt>
      <trkpt lat="49.08141" lon="2.02888">
        <ele>77.1</ele>
        <time>2021-12-31T15:33:14+01:00</time>
      </trkpt>
      <trkpt lat="49.08187" lon="2.02794">
        <ele>72.2</ele>
        <time>2021-12-31T15:33:19+01:00</time>
      </trkpt>
      <trkpt lat="49.08268" lon="2.02721">
        <ele>70</ele>
        <time>2021-12-31T15:33:24+01:00</time>
      </trkpt>
      <trkpt lat="49.08353" lon="2.02472">
        <ele>77</ele>
        <time>2021-12-31T15:33:29+01:00</time>
      </trkpt>
      <trkpt lat="49.08345" lon="2.0243">
        <ele>78.5</ele>
      </trkpt>
      <trkpt lat="49.08345" lon="2.02399">
        <ele>79.4</ele>
        <time>2021-12-31T15:33:34+01:00</time>
      </trkpt>
      <trkpt lat="49.08349" lon="2.02331">
        <ele>81</ele>
        <time>2021-12-31T15:33:39+01:00</time>
      </trkpt>
      <trkpt lat="49.08359" lon="2.02273">
        <ele>82.2</ele>
      </trkpt>
      <trkpt lat="49.08384" lon="2.02217">
        <ele>84.2</ele>
      </trkpt>
      <trkpt lat="49.08442" lon="2.0213">
        <ele>86.9</ele>
        <time>2021-12-31T15:33:49+01:00</time>
      </trkpt>
      <trkpt lat="49.08491" lon="2.021">
        <ele>87.8</ele>
        <time>2021-12-31T15:33:54+01:00</time>
      </trkpt>
      <trkpt lat="49.08568" lon="2.02089">
        <ele>89.9</ele>
        <time>2021-12-31T15:33:59+01:00</time>
      </trkpt>
      <trkpt lat="49.08628" lon="2.02117">
        <ele>90.9</ele>
        <time>2021-12-31T15:34:04+01:00</time>
      </trkpt>
      <trkpt lat="49.08678" lon="2.02171">
        <ele>91.4</ele>
        <time>2021-12-31T15:34:09+01:00</time>
      </trkpt>
      <trkpt lat="49.0872" lon="2.02237">
        <ele>91.9</ele>
        <time>2021-12-31T15:34:14+01:00</time>
      </trkpt>
      <trkpt lat="49.08731" lon="2.02241">
        <ele>92</ele>
        <time>2021-12-31T15:34:19+01:00</time>
      </trkpt>
      <trkpt lat="49.08748" lon="2.02163">
        <ele>92.9</ele>
        <time>2021-12-31T15:34:24+01:00</time>
      </trkpt>
      <trkpt lat="49.08802" lon="2.02057">
        <ele>92.9</ele>
        <time>2021-12-31T15:34:29+01:00</time>
      </trkpt>
      <trkpt lat="49.08849" lon="2.0201">
        <ele>93</ele>
        <time>2021-12-31T15:34:34+01:00</time>
      </trkpt>
      <trkpt lat="49.0891" lon="2.01971">
        <ele>94</ele>
      </trkpt>
      <trkpt lat="49.08962" lon="2.01959">
        <ele>94</ele>
        <time>2021-12-31T15:34:39+01:00</time>
      </trkpt>
      <trkpt lat="49.0904" lon="2.01955">
        <ele>93.4</ele>
        <time>2021-12-31T15:34:44+01:00</time>
      </trkpt>
      <trkpt lat="49.09163" lon="2.0197">
        <ele>93</ele>
        <time>2021-12-31T15:34:49+01:00</time>
      </trkpt>
      <trkpt lat="49.09267" lon="2.01996">
        <ele>94.5</ele>
      </trkpt>
      <trkpt lat="49.09312" lon="2.02013">
        <ele>95</ele>
      </trkpt>
      <trkpt lat="49.09333" lon="2.02019">
        <ele>95</ele>
        <time>2021-12-31T15:34:54+01:00</time>
      </trkpt>
      <trkpt lat="49.09449" lon="2.02067">
        <ele>96.5</ele>
      </trkpt>
      <trkpt lat="49.09509" lon="2.02089">
        <ele>97.1</ele>
      </trkpt>
      <trkpt lat="49.09591" lon="2.02148">
        <ele>98</ele>
      </trkpt>
      <trkpt lat="49.09708" lon="2.0221">
        <ele>98</ele>
        <time>2021-12-31T15:35:04+01:00</time>
      </trkpt>
      <trkpt lat="49.09808" lon="2.02247">
        <ele>97</ele>
      </trkpt>
      <trkpt lat="49.09818" lon="2.02133">
        <ele>93.9</ele>
        <time>2021-12-31T15:35:14+01:00</time>
      </trkpt>
      <trkpt lat="49.09821" lon="2.02038">
        <ele>90.8</ele>
        <time>2021-12-31T15:35:19+01:00</time>
      </trkpt>
      <trkpt lat="49.09801" lon="2.01977">
        <ele>89.2</ele>
        <time>2021-12-31T15:35:24+01:00</time>
      </trkpt>
      <trkpt lat="49.09762" lon="2.0191">
        <ele>88</ele>
        <time>2021-12-31T15:35:29+01:00</time>
      </trkpt>
      <trkpt lat="49.09693" lon="2.01825">
        <ele>87</ele>
        <time>2021-12-31T15:35:34+01:00</time>
      </trkpt>
      <trkpt lat="49.09612" lon="2.01724">
        <ele>85.1</ele>
        <time>2021-12-31T15:35:39+01:00</time>
      </trkpt>
      <trkpt lat="49.09558" lon="2.01662">
        <ele>84</ele>
        <time>2021-12-31T15:35:44+01:00</time>
      </trkpt>
      <trkpt lat="49.09509" lon="2.01624">
        <ele>83.5</ele>
        <time>2021-12-31T15:35:49+01:00</time>
      </trkpt>
      <trkpt lat="49.09302" lon="2.0158">
        <ele>80.9</ele>
        <time>2021-12-31T15:35:54+01:00</time>
      </trkpt>
      <trkpt lat="49.09185" lon="2.01555">
        <ele>80</ele>
      </trkpt>
      <trkpt lat="49.09142" lon="2.01546">
        <ele>79.7</ele>
        <time>2021-12-31T15:36:04+01:00</time>
      </trkpt>
      <trkpt lat="49.09115" lon="2.01533">
        <ele>79</ele>
      </trkpt>
      <trkpt lat="49.09072" lon="2.01503">
        <ele>79</ele>
        <time>2021-12-31T15:36:09+01:00</time>
      </trkpt>
      <trkpt lat="49.09013" lon="2.01451">
        <ele>78</ele>
        <time>2021-12-31T15:36:14+01:00</time>
      </trkpt>
      <trkpt lat="49.08968" lon="2.01389">
        <ele>77.1</ele>
        <time>2021-12-31T15:36:19+01:00</time>
      </trkpt>
      <trkpt lat="49.08918" lon="2.0132">
        <ele>76.5</ele>
        <time>2021-12-31T15:36:24+01:00</time>
      </trkpt>
      <trkpt lat="49.08864" lon="2.01259">
        <ele>76.3</ele>
        <time>2021-12-31T15:36:29+01:00</time>
      </trkpt>
      <trkpt lat="49.08766" lon="2.0116">
        <ele>72.5</ele>
        <time>2021-12-31T15:36:34+01:00</time>
      </trkpt>
      <trkpt lat="49.08694" lon="2.01086">
        <ele>69.1</ele>
        <time>2021-12-31T15:36:39+01:00</time>
      </trkpt>
      <trkpt lat="49.08673" lon="2.01078">
        <ele>69</ele>
      </trkpt>
      <trkpt lat="49.08678" lon="2.01048">
        <ele>69.1</ele>
      </trkpt>
      <trkpt lat="49.08659" lon="2.00996">
        <ele>71</ele>
      </trkpt>
      <trkpt lat="49.08607" lon="2.00902">
        <ele>74.4</ele>
      </trkpt>
      <trkpt lat="49.08517" lon="2.00784">
        <ele>77.7</ele>
      </trkpt>
      <trkpt lat="49.0844" lon="2.00721">
        <ele>77.9</ele>
      </trkpt>
      <trkpt lat="49.08417" lon="2.00697">
        <ele>77.9</ele>
      </trkpt>
      <trkpt lat="49.0843" lon="2.00668">
        <ele>78.9</ele>
      </trkpt>
      <trkpt lat="49.08441" lon="2.00626">
        <ele>80.7</ele>
      </trkpt>
      <trkpt lat="49.08443" lon="2.00582">
        <ele>81</ele>
      </trkpt>
      <trkpt lat="49.08479" lon="2.00584">
        <ele>85</ele>
      </trkpt>
      <trkpt lat="49.08524" lon="2.00524">
        <ele>87</ele>
      </trkpt>
      <trkpt lat="49.08578" lon="2.00392">
        <ele>89.8</ele>
      </trkpt>
      <trkpt lat="49.08601" lon="2.00374">
        <ele>89.5</ele>
      </trkpt>
      <trkpt lat="49.08895" lon="2.0023">
        <ele>89.4</ele>
      </trkpt>
      <trkpt lat="49.08905" lon="2.0022">
        <ele>89.6</ele>
      </trkpt>
      <trkpt lat="49.08744" lon="2.00155">
        <ele>83.6</ele>
        <time>2021-12-31T15:36:44+01:00</time>
      </trkpt>
      <trkpt lat="49.08724" lon="2.00144">
        <ele>83.2</ele>
      </trkpt>
      <trkpt lat="49.08654" lon="2.00093">
        <ele>79.9</ele>
        <time>2021-12-31T15:36:49+01:00</time>
      </trkpt>
      <trkpt lat="49.08591" lon="2.00043">
        <ele>77.2</ele>
      </trkpt>
      <trkpt lat="49.08545" lon="2.0002">
        <ele>76.4</ele>
        <time>2021-12-31T15:36:54+01:00</time>
      </trkpt>
      <trkpt lat="49.08427" lon="2.00011">
        <ele>72.9</ele>
        <time>2021-12-31T15:36:59+01:00</time>
      </trkpt>
      <trkpt lat="49.08276" lon="2.00074">
        <ele>56</ele>
      </trkpt>
      <trkpt lat="49.08245" lon="2.00193">
        <ele>58.9</ele>
        <time>2021-12-31T15:37:04+01:00</time>
      </trkpt>
      <trkpt lat="49.08227" lon="2.00329">
        <ele>63.9</ele>
      </trkpt>
      <trkpt lat="49.0823" lon="2.0045">
        <ele>64.2</ele>
      </trkpt>
      <trkpt lat="49.0822" lon="2.00456">
        <ele>62.5</ele>
        <time>2021-12-31T15:37:09+01:00</time>
      </trkpt>
      <trkpt lat="49.08095" lon="2.00443">
        <ele>42.4</ele>
        <time>2021-12-31T15:37:14+01:00</time>
      </trkpt>
      <trkpt lat="49.07936" lon="2.00286">
        <ele>42.3</ele>
        <time>2021-12-31T15:37:19+01:00</time>
      </trkpt>
      <trkpt lat="49.07891" lon="2.00289">
        <ele>44.9</ele>
        <time>2021-12-31T15:37:24+01:00</time>
      </trkpt>
      <trkpt lat="49.07848" lon="2.00328">
        <ele>45</ele>
      </trkpt>
      <trkpt lat="49.0781" lon="2.00337">
        <ele>44.9</ele>
        <time>2021-12-31T15:37:29+01:00</time>
      </trkpt>
      <trkpt lat="49.07778" lon="2.00193">
        <ele>47.1</ele>
        <time>2021-12-31T15:37:34+01:00</time>
      </trkpt>
      <trkpt lat="49.07874" lon="2.00074">
        <ele>57</ele>
        <time>2021-12-31T15:37:39+01:00</time>
      </trkpt>
      <trkpt lat="49.07896" lon="1.99949">
        <ele>65.8</ele>
        <time>2021-12-31T15:37:44+01:00</time>
      </trkpt>
      <trkpt lat="49.07882" lon="1.99896">
        <ele>72.3</ele>
      </trkpt>
      <trkpt lat="49.07848" lon="1.99839">
        <ele>77.6</ele>
        <time>2021-12-31T15:37:49+01:00</time>
      </trkpt>
      <trkpt lat="49.07828" lon="1.99821">
        <ele>79.4</ele>
      </trkpt>
      <trkpt lat="49.07788" lon="1.99728">
        <ele>84.1</ele>
      </trkpt>
      <trkpt lat="49.07758" lon="1.99627">
        <ele>89.4</ele>
        <time>2021-12-31T15:37:54+01:00</time>
      </trkpt>
      <trkpt lat="49.07731" lon="1.99541">
        <ele>92.5</ele>
      </trkpt>
      <trkpt lat="49.07697" lon="1.99453">
        <ele>95.1</ele>
        <time>2021-12-31T15:37:59+01:00</time>
      </trkpt>
      <trkpt lat="49.07645" lon="1.9932">
        <ele>96.5</ele>
      </trkpt>
      <trkpt lat="49.07636" lon="1.99259">
        <ele>97</ele>
        <time>2021-12-31T15:38:04+01:00</time>
      </trkpt>
      <trkpt lat="49.07629" lon="1.99247">
        <ele>97</ele>
        <time>2021-12-31T15:38:59+01:00</time>
      </trkpt>
      <trkpt lat="49.07506" lon="1.9961">
        <ele>84.3</ele>
        <time>2021-12-31T15:39:04+01:00</time>
      </trkpt>
      <trkpt lat="49.0747" lon="1.99681">
        <ele>78.8</ele>
        <time>2021-12-31T15:39:09+01:00</time>
      </trkpt>
      <trkpt lat="49.07439" lon="1.99785">
        <ele>69.5</ele>
        <time>2021-12-31T15:39:14+01:00</time>
      </trkpt>
      <trkpt lat="49.07414" lon="1.99861">
        <ele>70.1</ele>
        <time>2021-12-31T15:39:19+01:00</time>
      </trkpt>
      <trkpt lat="49.07414" lon="1.99891">
        <ele>72.6</ele>
        <time>2021-12-31T15:39:24+01:00</time>
      </trkpt>
      <trkpt lat="49.0732" lon="2.00206">
        <ele>86.1</ele>
        <time>2021-12-31T15:39:29+01:00</time>
      </trkpt>
      <trkpt lat="49.07225" lon="2.00504">
        <ele>75.4</ele>
        <time>2021-12-31T15:39:34+01:00</time>
      </trkpt>
      <trkpt lat="49.0713" lon="2.00802">
        <ele>77.4</ele>
        <time>2021-12-31T15:39:39+01:00</time>
      </trkpt>
      <trkpt lat="49.07056" lon="2.01019">
        <ele>67.3</ele>
        <time>2021-12-31T15:39:44+01:00</time>
      </trkpt>
      <trkpt lat="49.07058" lon="2.01076">
        <ele>67.7</ele>
        <time>2021-12-31T15:39:49+01:00</time>
      </trkpt>
      <trkpt lat="49.07151" lon="2.01132">
        <ele>79.7</ele>
        <time>2021-12-31T15:39:54+01:00</time>
      </trkpt>
      <trkpt lat="49.07154" lon="2.01159">
        <ele>84.3</ele>
        <time>2021-12-31T15:39:59+01:00</time>
      </trkpt>
      <trkpt lat="49.0705" lon="2.01217">
        <ele>87.1</ele>
        <time>2021-12-31T15:40:04+01:00</time>
      </trkpt>
      <trkpt lat="49.06974" lon="2.0131">
        <ele>100.3</ele>
        <time>2021-12-31T15:40:09+01:00</time>
      </trkpt>
      <trkpt lat="49.06956" lon="2.01387">
        <ele>103.3</ele>
        <time>2021-12-31T15:40:14+01:00</time>
      </trkpt>
      <trkpt lat="49.068" lon="2.01821">
        <ele>105.1</ele>
      </trkpt>
      <trkpt lat="49.0667" lon="2.02216">
        <ele>89.4</ele>
      </trkpt>
      <trkpt lat="49.06748" lon="2.02361">
        <ele>84.1</ele>
      </trkpt>
      <trkpt lat="49.06788" lon="2.02295">
        <ele>86.7</ele>
      </trkpt>
      <trkpt lat="49.06828" lon="2.02285">
        <ele>88.6</ele>
      </trkpt>
      <trkpt lat="49.06878" lon="2.02269">
        <ele>90.3</ele>
        <time>2021-12-31T15:40:19+01:00</time>
      </trkpt>
      <trkpt lat="49.0694" lon="2.02219">
        <ele>93.1</ele>
      </trkpt>
      <trkpt lat="49.06987" lon="2.02099">
        <ele>97.2</ele>
        <time>2021-12-31T15:40:24+01:00</time>
      </trkpt>
      <trkpt lat="49.07042" lon="2.02048">
        <ele>96.8</ele>
        <time>2021-12-31T15:40:29+01:00</time>
      </trkpt>
      <trkpt lat="49.07117" lon="2.02019">
        <ele>93.7</ele>
        <time>2021-12-31T15:40:34+01:00</time>
      </trkpt>
      <trkpt lat="49.07162" lon="2.0198">
        <ele>91.1</ele>
        <time>2021-12-31T15:40:39+01:00</time>
      </trkpt>
      <trkpt lat="49.07189" lon="2.02166">
        <ele>86.4</ele>
        <time>2021-12-31T15:40:44+01:00</time>
      </trkpt>
      <trkpt lat="49.07257" lon="2.02338">
        <ele>80.3</ele>
        <time>2021-12-31T15:40:49+01:00</time>
      </trkpt>
      <trkpt lat="49.07285" lon="2.0243">
        <ele>75.9</ele>
        <time>2021-12-31T15:40:54+01:00</time>
      </trkpt>
      <trkpt lat="49.07294" lon="2.0252">
        <ele>73.6</ele>
        <time>2021-12-31T15:40:59+01:00</time>
      </trkpt>
      <trkpt lat="49.07284" lon="2.02656">
        <ele>67.7</ele>
        <time>2021-12-31T15:41:04+01:00</time>
      </trkpt>
      <trkpt lat="49.07329" lon="2.0272">
        <ele>59.1</ele>
        <time>2021-12-31T15:41:09+01:00</time>
      </trkpt>
      <trkpt lat="49.07364" lon="2.02848">
        <ele>47.4</ele>
        <time>2021-12-31T15:41:14+01:00</time>
      </trkpt>
      <trkpt lat="49.07389" lon="2.02954">
        <ele>42.7</ele>
        <time>2021-12-31T15:41:19+01:00</time>
      </trkpt>
      <trkpt lat="49.07473" lon="2.02885">
        <ele>41.9</ele>
        <time>2021-12-31T15:41:24+01:00</time>
      </trkpt>
      <trkpt lat="49.0751" lon="2.02915">
        <ele>40.7</ele>
        <time>2021-12-31T15:41:29+01:00</time>
      </trkpt>
      <trkpt lat="49.07528" lon="2.02885">
        <ele>40.1</ele>
        <time>2021-12-31T15:41:34+01:00</time>
      </trkpt>
      <trkpt lat="49.07565" lon="2.02682">
        <ele>41.6</ele>
        <time>2021-12-31T15:41:39+01:00</time>
      </trkpt>
      <trkpt lat="49.07583" lon="2.02578">
        <ele>43</ele>
        <time>2021-12-31T15:41:44+01:00</time>
      </trkpt>
    </trkseg>
  </trk>
</gpx>